Weather in Korkino

Russia / Tyumen Oblast     56°04′30″N   65°56′20″E
temp.,
°C
wind,
m/s
gust,
m/s
humid.,
%
clouds,
%
prec.,
mm/h
press.,
hPa
HPBL,
m
13 april, tue
tue1323:00+5nw37895 0.0 103793
02:00+3n33905 0.0 103843
05:00+2nnw22864 0.0 104014
08:00+4nnw12820 0.0 104198
11:00+9wnw22650 0.0 1041494
14:00+12w33535 0.0 10401020
17:00+12w35540 0.0 10391000
20:00+8wsw34765 0.0 103856
14 april, wed
wed1423:00+6sw378711 0.0 1037125
02:00+5sw5128896 0.0 1035242
05:00+5sw51390100 0.0 1034285
08:00+7sw5128462 0.0 1033355
11:00+12wsw697026 0.0 1031580
14:00+16w676412 0.0 10301020
17:00+17w57658 0.0 10281002
20:00+13wsw338313 0.0 102839
15 april, thu
thu1523:00+11wsw34895 0.0 102764
02:00+10sw36917 0.0 102790
05:00+8wsw359348 0.0 102669
08:00+11wsw35865 0.0 1026166
11:00+16wsw456712 0.0 1024669
14:00+19wsw565551 0.0 10221312
17:00+19wsw56545 0.0 10201226
20:00+13sw47695 0.0 1019110
16 april, fri
fri1623:00+10sw47733 0.0 1018105
02:00+9sw48715 0.0 1017123
05:00+7wsw347636 0.0 101648
08:00+10wnw2471100 0.0 1015143
11:00+14nnw3354100 0.0 1014702
14:00+12n7670100 0.0 1014848
17:00+7nne7983100 0.0 1015646
20:00+5ne6994100 0.4 1016748
17 april, sat
sat1723:00+3ne5996100 1.9 1016745
02:00+1ne51098100 1.2 1016455
05:000ne699594 1.6 1016575
08:000ne578187 0.1 1016617
11:00+2ne4568100 0.2 10151080
14:00+3ne4561100 0.0 10141167
17:00+3ne4555100 0.1 10141342
20:00+1ne4862100 0.0 1014409